CFG1T EDSB-EDSB

Flight info

Callsign CFG1T
Flight time 0h 48m
Altitude 11000
Route GAGSI2Z GAGSI
Aircraft A320/M-SDE3FGHIRWY/LB1

Departure

Time 2026-05-07 16:18
Airport Karlsruhe Baden-Baden Airport (EDSB)

Arrival

Time 2026-05-07 17:07
Airport Karlsruhe Baden-Baden Airport (EDSB)
Time Latitude Longitude Altitude Speed Heading
2026-05-07 15:55 48.78365 8.09081 409 ft 0 kts 102°
2026-05-07 16:14 48.78364 8.09084 416 ft 0 kts 108°
2026-05-07 16:14 48.78359 8.09084 407 ft 1 kts 164°
2026-05-07 16:15 48.78356 8.09073 407 ft 1 kts 251°
2026-05-07 16:15 48.78385 8.09047 411 ft 10 kts 354°
2026-05-07 16:15 48.78460 8.09101 412 ft 10 kts 32°
2026-05-07 16:15 48.78540 8.09177 409 ft 16 kts 32°
2026-05-07 16:16 48.78646 8.09276 413 ft 17 kts 31°
2026-05-07 16:16 48.78725 8.09255 416 ft 15 kts 300°
2026-05-07 16:16 48.78799 8.09153 413 ft 16 kts
2026-05-07 16:16 48.78904 8.09248 414 ft 20 kts 31°
2026-05-07 16:17 48.79012 8.09271 409 ft 14 kts 314°
2026-05-07 16:17 48.79053 8.09163 412 ft 11 kts 299°
2026-05-07 16:17 48.79025 8.09074 409 ft 10 kts 212°
2026-05-07 16:17 48.78880 8.08938 413 ft 64 kts 212°
2026-05-07 16:18 48.78248 8.08338 419 ft 148 kts 212°
2026-05-07 16:18 48.77281 8.07424 1012 ft 168 kts 214°
2026-05-07 16:18 48.76310 8.06480 2071 ft 164 kts 213°
2026-05-07 16:18 48.75328 8.05540 3003 ft 174 kts 216°
2026-05-07 16:19 48.74231 8.04507 3647 ft 198 kts 213°
2026-05-07 16:19 48.72985 8.03349 4266 ft 223 kts 214°
2026-05-07 16:19 48.71584 8.02049 4979 ft 250 kts 214°
2026-05-07 16:19 48.70046 8.00626 5993 ft 265 kts 213°
2026-05-07 16:20 48.68436 7.99143 6696 ft 272 kts 214°
2026-05-07 16:20 48.66818 7.97668 6947 ft 271 kts 211°
2026-05-07 16:20 48.65031 7.96740 7037 ft 274 kts 189°
2026-05-07 16:20 48.63129 7.96950 7048 ft 278 kts 166°
2026-05-07 16:21 48.61431 7.98289 7059 ft 283 kts 142°
2026-05-07 16:21 48.60192 8.00576 7055 ft 284 kts 118°
2026-05-07 16:21 48.59576 8.03417 7053 ft 285 kts 102°
2026-05-07 16:21 48.59394 8.06399 7048 ft 286 kts 88°
2026-05-07 16:22 48.59617 8.09400 7053 ft 287 kts 82°
2026-05-07 16:22 48.59895 8.12375 7058 ft 285 kts 82°
2026-05-07 16:22 48.60169 8.15349 7055 ft 286 kts 82°
2026-05-07 16:22 48.60440 8.18321 7059 ft 286 kts 82°
2026-05-07 16:23 48.60709 8.21299 7055 ft 285 kts 82°
2026-05-07 16:23 48.60974 8.24263 7056 ft 285 kts 82°
2026-05-07 16:23 48.61241 8.27248 7046 ft 287 kts 82°
2026-05-07 16:23 48.61658 8.30182 7005 ft 287 kts 67°
2026-05-07 16:24 48.62763 8.32587 6753 ft 274 kts 40°
2026-05-07 16:24 48.64233 8.34333 6503 ft 264 kts 34°
2026-05-07 16:24 48.65689 8.35949 6249 ft 255 kts 33°
2026-05-07 16:24 48.67102 8.37502 5985 ft 248 kts 32°
2026-05-07 16:25 48.68463 8.38996 5732 ft 243 kts 33°
2026-05-07 16:25 48.69816 8.40500 5468 ft 240 kts 34°
2026-05-07 16:25 48.71157 8.41978 5216 ft 238 kts 33°
2026-05-07 16:25 48.72492 8.43440 5059 ft 237 kts 32°
2026-05-07 16:26 48.73824 8.44912 4982 ft 237 kts 34°
2026-05-07 16:26 48.75158 8.46380 4993 ft 236 kts 34°
2026-05-07 16:26 48.76492 8.47831 4986 ft 236 kts 34°
2026-05-07 16:26 48.77828 8.49288 4997 ft 239 kts 34°
2026-05-07 16:27 48.79182 8.50751 4991 ft 240 kts 34°
2026-05-07 16:27 48.80542 8.52217 4991 ft 240 kts 34°
2026-05-07 16:27 48.81900 8.53687 4993 ft 240 kts 34°
2026-05-07 16:27 48.83257 8.55157 4992 ft 240 kts 33°
2026-05-07 16:28 48.84727 8.56282 4996 ft 236 kts
2026-05-07 16:28 48.86331 8.56124 4988 ft 232 kts 338°
2026-05-07 16:28 48.87626 8.54736 4812 ft 227 kts 309°
2026-05-07 16:28 48.88591 8.52841 4632 ft 227 kts 304°
2026-05-07 16:29 48.89504 8.50888 4437 ft 226 kts 304°
2026-05-07 16:29 48.90404 8.48931 4261 ft 225 kts 304°
2026-05-07 16:29 48.91295 8.46973 4096 ft 224 kts 304°
2026-05-07 16:29 48.92177 8.45027 3995 ft 223 kts 304°
2026-05-07 16:30 48.93054 8.43083 3997 ft 224 kts 304°
2026-05-07 16:30 48.93936 8.41118 3999 ft 226 kts 303°
2026-05-07 16:30 48.94821 8.39145 3968 ft 226 kts 304°
2026-05-07 16:30 48.95663 8.37168 3842 ft 226 kts 303°
2026-05-07 16:31 48.96402 8.35086 3715 ft 223 kts 284°
2026-05-07 16:31 48.96357 8.32759 3588 ft 225 kts 252°
2026-05-07 16:31 48.95728 8.30576 3458 ft 225 kts 244°
2026-05-07 16:31 48.95011 8.28454 3331 ft 225 kts 244°
2026-05-07 16:32 48.94283 8.26352 3206 ft 225 kts 244°
2026-05-07 16:32 48.93557 8.24240 3098 ft 226 kts 244°
2026-05-07 16:32 48.92730 8.22215 2997 ft 227 kts 228°
2026-05-07 16:32 48.91468 8.20764 3006 ft 229 kts 213°
2026-05-07 16:33 48.90110 8.19495 2953 ft 229 kts 214°
2026-05-07 16:33 48.88755 8.18224 2723 ft 228 kts 213°
2026-05-07 16:33 48.87409 8.16957 2425 ft 228 kts 213°
2026-05-07 16:33 48.86092 8.15718 2118 ft 212 kts 214°
2026-05-07 16:34 48.84907 8.14604 1855 ft 190 kts 214°
2026-05-07 16:34 48.83848 8.13608 1637 ft 169 kts 214°
2026-05-07 16:34 48.82892 8.12708 1381 ft 155 kts 214°
2026-05-07 16:34 48.82013 8.11882 1168 ft 144 kts 213°
2026-05-07 16:35 48.81179 8.11095 967 ft 139 kts 214°
2026-05-07 16:35 48.80366 8.10337 759 ft 139 kts 213°
2026-05-07 16:35 48.79539 8.09557 591 ft 141 kts 215°
2026-05-07 16:35 48.78711 8.08785 422 ft 132 kts 214°
2026-05-07 16:36 48.78015 8.08121 411 ft 106 kts 212°
2026-05-07 16:36 48.77224 8.07372 486 ft 174 kts 213°
2026-05-07 16:36 48.76128 8.06358 1446 ft 191 kts 211°
2026-05-07 16:36 48.74964 8.05321 2592 ft 195 kts 211°
2026-05-07 16:37 48.73789 8.04285 3614 ft 197 kts 213°
2026-05-07 16:37 48.72508 8.03558 4596 ft 202 kts 192°
2026-05-07 16:37 48.71121 8.03814 4918 ft 204 kts 156°
2026-05-07 16:37 48.70056 8.05200 4993 ft 203 kts 128°
2026-05-07 16:38 48.69233 8.06930 4990 ft 201 kts 124°
2026-05-07 16:38 48.68448 8.08692 5001 ft 202 kts 124°
2026-05-07 16:38 48.67676 8.10444 5008 ft 200 kts 123°
2026-05-07 16:38 48.66911 8.12177 5018 ft 200 kts 123°
2026-05-07 16:39 48.66137 8.13948 5016 ft 202 kts 121°
2026-05-07 16:39 48.65772 8.15945 5016 ft 199 kts 83°
2026-05-07 16:39 48.66282 8.17821 5015 ft 194 kts 45°
2026-05-07 16:39 48.67285 8.19189 5011 ft 194 kts 36°
2026-05-07 16:40 48.68359 8.20412 5002 ft 194 kts 34°
2026-05-07 16:40 48.69441 8.21626 5005 ft 194 kts 33°
2026-05-07 16:40 48.70525 8.22847 5005 ft 193 kts 33°
2026-05-07 16:40 48.71605 8.24056 5014 ft 193 kts 33°
2026-05-07 16:41 48.72688 8.25257 5010 ft 193 kts 33°
2026-05-07 16:41 48.73769 8.26467 5007 ft 194 kts 33°
2026-05-07 16:41 48.74837 8.27669 5003 ft 194 kts 33°
2026-05-07 16:41 48.75924 8.28877 5007 ft 194 kts 34°
2026-05-07 16:42 48.77012 8.30077 5015 ft 193 kts 34°
2026-05-07 16:42 48.78094 8.31284 5014 ft 193 kts 33°
2026-05-07 16:42 48.79186 8.32503 4999 ft 195 kts 34°
2026-05-07 16:42 48.80292 8.33714 5004 ft 196 kts 33°
2026-05-07 16:43 48.81403 8.34927 5009 ft 197 kts 33°
2026-05-07 16:43 48.82511 8.36142 5002 ft 197 kts 33°
2026-05-07 16:43 48.83620 8.37363 5003 ft 197 kts 34°
2026-05-07 16:43 48.84765 8.38478 5001 ft 194 kts 17°
2026-05-07 16:44 48.86078 8.38581 4805 ft 189 kts 339°
2026-05-07 16:44 48.87116 8.37473 4581 ft 183 kts 309°
2026-05-07 16:44 48.87901 8.35956 4325 ft 183 kts 304°
2026-05-07 16:44 48.88642 8.34380 4058 ft 183 kts 304°
2026-05-07 16:45 48.89366 8.32799 3817 ft 185 kts 304°
2026-05-07 16:45 48.90093 8.31194 3594 ft 183 kts 304°
2026-05-07 16:45 48.90719 8.29519 3328 ft 182 kts 285°
2026-05-07 16:45 48.90616 8.27626 3085 ft 183 kts 252°
2026-05-07 16:46 48.90074 8.25871 2998 ft 184 kts 245°
2026-05-07 16:46 48.89473 8.24155 3009 ft 184 kts 244°
2026-05-07 16:46 48.88863 8.22458 3005 ft 182 kts 243°
2026-05-07 16:46 48.88310 8.20720 2922 ft 183 kts 251°
2026-05-07 16:47 48.87743 8.18997 2809 ft 179 kts 239°
2026-05-07 16:47 48.87033 8.17495 2655 ft 171 kts 235°
2026-05-07 16:47 48.86244 8.16178 2399 ft 169 kts 224°
2026-05-07 16:47 48.85318 8.15090 2118 ft 168 kts 216°
2026-05-07 16:48 48.84336 8.14121 1817 ft 167 kts 214°
2026-05-07 16:48 48.83370 8.13184 1539 ft 161 kts 215°
2026-05-07 16:48 48.82451 8.12304 1287 ft 160 kts 213°
2026-05-07 16:48 48.81477 8.11393 1040 ft 167 kts 214°
2026-05-07 16:49 48.80528 8.10482 826 ft 155 kts 212°
2026-05-07 16:49 48.79633 8.09654 624 ft 145 kts 215°
2026-05-07 16:49 48.78800 8.08864 427 ft 135 kts 214°
2026-05-07 16:49 48.78064 8.08165 416 ft 126 kts 211°
2026-05-07 16:50 48.77131 8.07281 830 ft 172 kts 213°
2026-05-07 16:50 48.76113 8.06273 1846 ft 179 kts 214°
2026-05-07 16:50 48.75045 8.05202 2918 ft 187 kts 215°
2026-05-07 16:50 48.73938 8.04099 3873 ft 193 kts 217°
2026-05-07 16:51 48.72760 8.03070 4771 ft 203 kts 202°
2026-05-07 16:51 48.71259 8.02919 4974 ft 228 kts 169°
2026-05-07 16:51 48.69879 8.04046 5006 ft 233 kts 135°
2026-05-07 16:51 48.68872 8.05970 4994 ft 234 kts 125°
2026-05-07 16:52 48.67959 8.08007 5002 ft 233 kts 124°
2026-05-07 16:52 48.67054 8.10055 5013 ft 234 kts 123°
2026-05-07 16:52 48.66152 8.12103 5006 ft 235 kts 123°
2026-05-07 16:52 48.65250 8.14148 5015 ft 234 kts 123°
2026-05-07 16:53 48.64495 8.16312 5000 ft 233 kts 103°
2026-05-07 16:53 48.64539 8.18708 5004 ft 230 kts 69°
2026-05-07 16:53 48.65421 8.20672 5015 ft 227 kts 39°
2026-05-07 16:53 48.66654 8.22162 5001 ft 226 kts 33°
2026-05-07 16:54 48.67493 8.23095 5008 ft 226 kts 34°
2026-05-07 16:54 48.68770 8.24495 5005 ft 226 kts 34°
2026-05-07 16:54 48.70041 8.25900 5011 ft 226 kts 33°
2026-05-07 16:54 48.71719 8.27764 5000 ft 226 kts 34°
2026-05-07 16:55 48.72994 8.29158 4997 ft 226 kts 33°
2026-05-07 16:55 48.73855 8.30105 5004 ft 226 kts 33°
2026-05-07 16:55 48.75126 8.31510 5003 ft 226 kts 34°
2026-05-07 16:55 48.76381 8.32894 5004 ft 226 kts 34°
2026-05-07 16:56 48.77652 8.34284 5005 ft 226 kts 34°
2026-05-07 16:56 48.78931 8.35688 5003 ft 228 kts 34°
2026-05-07 16:56 48.81523 8.38504 5002 ft 229 kts 34°
2026-05-07 16:57 48.82817 8.39910 5009 ft 229 kts 33°
2026-05-07 16:57 48.84112 8.41320 5004 ft 229 kts 34°
2026-05-07 16:57 48.85412 8.42723 5001 ft 229 kts 32°
2026-05-07 16:57 48.86865 8.43573 5001 ft 224 kts
2026-05-07 16:58 48.88351 8.43084 5003 ft 219 kts 328°
2026-05-07 16:58 48.89427 8.41533 4996 ft 205 kts 307°
2026-05-07 16:58 48.90218 8.39906 4993 ft 182 kts 304°
2026-05-07 16:58 48.90912 8.38417 5031 ft 164 kts 304°
2026-05-07 16:59 48.91549 8.37049 4904 ft 156 kts 303°
2026-05-07 16:59 48.92177 8.35705 4665 ft 155 kts 303°
2026-05-07 16:59 48.92800 8.34368 4424 ft 154 kts 304°
2026-05-07 16:59 48.93406 8.33054 4190 ft 149 kts 304°
2026-05-07 17:00 48.93994 8.31774 3959 ft 145 kts 304°
2026-05-07 17:00 48.94438 8.30435 3731 ft 141 kts 275°
2026-05-07 17:00 48.94175 8.29030 3505 ft 141 kts 244°
2026-05-07 17:00 48.93732 8.27738 3295 ft 135 kts 244°
2026-05-07 17:01 48.93294 8.26501 3087 ft 130 kts 244°
2026-05-07 17:01 48.92876 8.25341 3011 ft 125 kts 243°
2026-05-07 17:01 48.92465 8.24195 2998 ft 123 kts 243°
2026-05-07 17:01 48.92050 8.23068 3005 ft 122 kts 244°
2026-05-07 17:02 48.91632 8.21954 3010 ft 122 kts 243°
2026-05-07 17:02 48.91213 8.20840 3006 ft 121 kts 243°
2026-05-07 17:02 48.90569 8.20030 3007 ft 126 kts 205°
2026-05-07 17:02 48.89832 8.19346 2928 ft 124 kts 220°
2026-05-07 17:03 48.89112 8.18615 2790 ft 125 kts 215°
2026-05-07 17:03 48.88391 8.17909 2644 ft 126 kts 217°
2026-05-07 17:03 48.87652 8.17200 2478 ft 126 kts 216°
2026-05-07 17:03 48.86914 8.16497 2318 ft 125 kts 215°
2026-05-07 17:04 48.86171 8.15794 2148 ft 126 kts 215°
2026-05-07 17:04 48.85424 8.15088 1983 ft 127 kts 214°
2026-05-07 17:04 48.84674 8.14382 1805 ft 125 kts 216°
2026-05-07 17:04 48.83939 8.13690 1629 ft 123 kts 214°
2026-05-07 17:05 48.83218 8.13012 1449 ft 122 kts 214°
2026-05-07 17:05 48.82486 8.12325 1304 ft 126 kts 214°
2026-05-07 17:05 48.81725 8.11602 1128 ft 130 kts 213°
2026-05-07 17:05 48.80963 8.10893 955 ft 128 kts 213°
2026-05-07 17:06 48.80197 8.10182 754 ft 131 kts 212°
2026-05-07 17:06 48.79418 8.09444 573 ft 133 kts 212°
2026-05-07 17:06 48.78634 8.08705 424 ft 125 kts 212°
2026-05-07 17:06 48.77998 8.08110 411 ft 84 kts 211°
2026-05-07 17:07 48.77643 8.07778 408 ft 43 kts 211°
2026-05-07 17:07 48.77417 8.07568 417 ft 24 kts 211°
2026-05-07 17:07 48.77342 8.07614 415 ft 8 kts 110°
2026-05-07 17:07 48.77308 8.07692 413 ft 9 kts 122°
2026-05-07 17:08 48.77327 8.07776 412 ft 12 kts 39°
2026-05-07 17:08 48.77422 8.07861 416 ft 18 kts 31°
2026-05-07 17:08 48.77544 8.07974 409 ft 23 kts 32°
2026-05-07 17:08 48.77689 8.08111 411 ft 26 kts 32°
2026-05-07 17:09 48.77852 8.08265 414 ft 29 kts 32°
2026-05-07 17:09 48.78029 8.08430 413 ft 28 kts 32°
2026-05-07 17:09 48.78140 8.08541 412 ft 14 kts 50°
2026-05-07 17:09 48.78116 8.08665 409 ft 10 kts 122°
2026-05-07 17:10 48.78069 8.08725 411 ft 9 kts 175°
2026-05-07 17:10 48.78031 8.08765 416 ft 3 kts 124°
2026-05-07 17:10 48.78027 8.08772 416 ft 1 kts 133°
2026-05-07 17:10 48.78009 8.08781 416 ft 0 kts 175°